Regional Weather Roundup
Issued by NWS Wakefield, VA

Home | Current Version | Previous Version | Graphics & Text | Print | Product List | Glossary On
Versions: 1 2 3 4 5 6 7 8 9 10 11 12 13 14 15 16 17 18 19 20 21 22 23 24 25 26 27 28 29 30 31 32 33 34 35 36 37 38 39 40 41 42 43 44 45 46 47 48 49 50
000
ASUS41 KAKQ 242215
RWRAKQ

REGIONAL WEATHER ROUNDUP
NATIONAL WEATHER SERVICE WAKEFIELD VA
600 PM EDT SUN MAY 24 2015

Note: "fair" indicates few or no clouds below 12,000 feet with no
significant weather and/or obstructions to visibility. * = Denotes
station may not report precipitation (e.g., rain,snow,etc.),
thunder or fog.

VAZ042-051-052>054-056-242300-
NORTHERN VIRGINIA

CITY           SKY/WX    TMP DP  RH WIND       PRES   REMARKS
WASH NATIONAL  MOSUNNY   81  59  47 S10       30.25F
DULLES         MOSUNNY   80  53  39 SW8       30.25F
FORT BELVOIR   SUNNY     81  57  44 SE6       30.25F
QUANTICO       SUNNY     79  61  53 S8        30.25F
FREDERICKSBRG* SUNNY     85  55  35 SW12      30.25S
STAFFORD*      SUNNY     82  50  33 SW8       30.29F
WARRENTON      MOSUNNY   82  58  43 SW7       30.24F
CULPEPER*      MOSUNNY   80  52  37 S7        30.25F
MANASSAS*      SUNNY     82  54  36 S3        30.24F
LEESBURG*      SUNNY     82  54  36 SW7       30.26S
WINCHESTER     SUNNY     82  43  24 S5        30.25S
FRONT ROYAL*   FAIR      79  59  50 S5        30.23F
LURAY*         FAIR      82  54  36 S5        30.24F
$$

VAZ048-049-060>072-079>083-242300-
CENTRAL AND SOUTH CENTRAL VIRGINIA

CITY           SKY/WX    TMP DP  RH WIND       PRES   REMARKS
RICHMOND       MOSUNNY   82  55  39 SW10      30.28F
CHESTERFIELD*  NOT AVBL
PETERSBURG*    SUNNY     82  52  35 W6        30.29F
HANOVER        SUNNY     81  54  39 S10       30.29F
TAPPAHANNOCK*  MOSUNNY   81  48  31 S8        30.28S
QUINTON*       FAIR      80  55  42 SW6       30.28F
CHARLOTTSVILLE SUNNY     81  52  36 SW9       30.26S
GORDONSVILLE*  FAIR      81  55  41 S12G18    30.25F
ORANGE*        SUNNY     82  54  36 S9        30.27F
LOUISA*        SUNNY     82  55  39 S8        30.26S
BUMPASS*       FAIR      80  56  43 SW8       30.27F
FARMVILLE*     SUNNY     81  53  38 S12       30.28S
CREWE*         FAIR      79  54  42 S7        30.29F
FORT PICKETT*  FAIR      81  54  39 SW12      30.30F
CHASE CITY*    FAIR      82  58  44 S6        30.31F
CLARKSVILLE*   FAIR      79  55  44 S6        30.30S
SOUTH HILL*    MOSUNNY   77  58  51 CALM      30.37S
LAWRENCEVILLE* FAIR      81  57  44 S7        30.30S
EMPORIA*       MOSUNNY   79  54  41 SE8       30.32S
$$

VAZ088>098-242300-
SOUTHEAST VIRGINIA

CITY           SKY/WX    TMP DP  RH WIND       PRES   REMARKS
NORFOLK        SUNNY     79  55  43 S12       30.30F
VIRGINIA BEACH MOSUNNY   75  55  49 SE12      30.31F
NORFOLK NAVAL  PTSUNNY   83  56  39 S5        30.31F
WEST POINT*    SUNNY     84  50  31 S8        30.29F
SALUDA*        FAIR      77  59  54 S12G18    30.28F
NEWPORT NEWS   SUNNY     84  56  38 SW9       30.29F
LANGLEY AFB    SUNNY     78  59  50 SE9       30.29F
FORT EUSTIS    SUNNY     80  60  50 SW7       30.27F
WILLIAMSBURG*  SUNNY     84  57  39 CALM      30.30F
HR EXEC AP*    MOCLDY    81  57  44 SW9       30.31F
FRANKLIN*      PTSUNNY   81  55  40 SW6       30.31S
WAKEFIELD      MOSUNNY   81  55  40 S5        30.29F
$$

VAZ020-022-025-037-045-242300-
WEST CENTRAL AND SOUTHWEST VIRGINIA

CITY           SKY/WX    TMP DP  RH WIND       PRES   REMARKS
STAUNTON*      SUNNY     81  49  32 S9        30.28S
WAYNESBORO*    FAIR      77  52  40 S8G17     30.28F
HOT SPRINGS VA MOSUNNY   69  48  47 S9        30.37S
LYNCHBURG      SUNNY     78  53  41 S12       30.30F
DANVILLE       SUNNY     81  52  36 S8        30.30F
SOUTH BOSTON*  FAIR      80  53  39 MISG      30.30F
MARTINSVILLE   SUNNY     82  51  34 S3        30.32F
ROANOKE        MOSUNNY   79  51  37 S12       30.30S
BLACKSBURG     SUNNY     75  50  40 S6        30.35S
DUBLIN*        SUNNY     78  50  37 S9        30.33S
MARION*        SUNNY     76  48  37 SE6       30.35S
HILLSVILLE*    SUNNY     72  51  48 S8G16     30.35F
RICHLANDS*     FAIR      78  51  38 SE6       30.30F
WISE*          SUNNY     79  41  25 S6        30.31F
ABINGDON*      SUNNY     81  48  31 S10       30.28S
$$

MDZ021>025-VAZ099-100-242300-
SOUTHERN MARYLAND AND THE DELMARVA PENINSULA

CITY           SKY/WX    TMP DP  RH WIND       PRES   REMARKS
PATUXENT RIVER MOSUNNY   74  60  61 SE12      30.27F
BAY BRIDGE APT   N/A    N/A N/A N/A S8        30.27S
LEONARDTOWN    MOSUNNY   77  57  50 SE8       30.28S
DOVER          SUNNY     80  58  46 W9        30.24F
GEORGETOWN     SUNNY     78  56  46 W9        30.28S
EASTON         SUNNY     81  59  47 SW8       30.31S
CAMBRIDGE      SUNNY     77  55  47 S9G16     30.28S
SALISBURY      SUNNY     74  51  44 S12       30.29S
OCEAN CITY     SUNNY     68  50  52 SW13G23   30.31F
WALLOPS ISLAND SUNNY     67  52  58 S14G23    30.32F
ACCOMACK*      SUNNY     70  52  52 S12       30.32F
$$

NCZ012>017-030>032-242300-
NORTH CENTRAL AND EASTERN NORTH CAROLINA

CITY           SKY/WX    TMP DP  RH WIND       PRES   REMARKS
ROANOKE RAPIDS FAIR      79  54  41 S7        30.31S
RALEIGH        MOSUNNY   81  54  39 SW5       30.31F
ELIZABETH CITY SUNNY     74  58  57 SE12      30.33F
AHOSKIE*       SUNNY     78  55  44 S5        30.31F
EDENTON*         N/A     77  59  53 E8        30.32F
CURRITUCK*     SUNNY     77  52  41 SE7       30.33F
KILL DEVIL HLS SUNNY     72  56  55 SE8       30.34F
MANTEO         SUNNY     74  55  52 S9        30.35F
CAPE HATTERAS  SUNNY     75  53  46 SE6       30.36F
TARBORO*       FAIR      82  53  37 SW6       30.32S
GOLDSBORO      NOT AVBL
WASHINGTON     SUNNY     79  54  42 SE8       30.33F
GREENVILLE     MOSUNNY   81  55  41 SE8       30.32S
NEW BERN       MOSUNNY   78  57  48 SE8       30.34F
WILMINGTON     MOSUNNY   77  57  50 SE8       30.34F
$$

VAZ048-242300-
ELSEWHERE

CITY           SKY/WX    TMP DP  RH WIND       PRES   REMARKS
HARRISBURG PA  PTSUNNY   81  46  29 S7        30.23F
BALTIMORE      MOSUNNY   79  58  48 S9G16     30.24F
ANNAPOLIS      SUNNY     73  59  61 S14       30.26F
ANDREWS AFB    SUNNY     80  56  43 S5        30.25F
PHILADELPHIA   MOSUNNY   81  42  25 SW14      30.25F
HENDERSON NC   SUNNY     77  49  37 S6        30.32S
GREENSBORO     MOSUNNY   79  52  38 SW14      30.30F
ROCKY MOUNT    SUNNY     81  54  39 S6        30.31F
$$

VAZ100-242300-
MARINE

STATION/POSITION TIME  TEMP    WIND        PRES    WAVE   SWELL
                       AIR SEA DIR/SP/G            HT/PER HT/PER
                 (UTC) (F)     (DEG/KT/KT) (MB)    (FT/S) (FT/S)
BRANDYWINE LGT   2100   64 64  180/ 19/ 22 1025.4F
CAPE MAY NJ      2100   66 67  170/ 16/ 25 1025.2F
LEWES DE         2100   73 63  170/  9/ 15 1025.2F
15NM E FENWICK I 2150   63 61              1026.0F   2/ 3
OCEAN-CITY-INLET 2100   63 62  210/ 13/ 16 1026.5F
WACHAPREAGUE VA  2100   69 71  190/ 12/ 14 1027.3F
THOMAS POINT MD  2200   69 67  180/ 12/ 13 1025.4F
GOOSES REEF MD   2200   69 66  170/ 14/ 16 1025.9F   1/ 3
SOLOMONS ISLAND  2100      70                N/A
BISHOPS HEAD MD  2100   71 74  160/ 15/ 18 1025.5F
PINEY POINT MD   2100          150/ 11/ 12   N/A
CAMBRIDGE MD     2100   77 69  180/  9/ 13 1025.3F
LEWISETTA VA     2100   79 72              1024.9F
RAPPAHANNOCK LGT 2100          150/ 12/ 13 1027.0F
STINGRAY PT      2200   69 69  170/ 17/ 21 1025.5F   2/ 3
YORK RVR RNG VA  2100   69     150/ 16/ 18 1025.5F
YORKTOWN VA      2100   79 71  230/  5/ 12 1025.7F
JAMESTOWN VA     2200   79 74  220/  8/ 10 1024.5
DOMINION TERM VA 2100   77     190/  5/  6 1026.4F
KIPTOPEKE VA     2100      73  160/ 15/ 19   N/A
CHES BAY BRIDGE  2100   74 65  120/  6/ 12 1026.3F
CAPE HENRY VA    2100   69     140/ 15/ 19 1025.7F
CHESAPEAKE LGHT  2100   64     160/ 20/ 21 1027.6F
WILLOUBY STN VA  2100   73      90/ 10/ 11 1027.1F
CAPE HENRY BUOY  2128      65                N/A     2/ 3
1ST LANDING BUOY 2200      66              1026.2F
CAPE CHARLES BUO 2126      65                N/A     3/ 4   2/10
OFFSHORE WE BUOY 2111      62                N/A     2/ 3   2/ 6
64NM E OF VA BCH 2150   64 63  150/  8/  8 1027.7F   1/ 6   2/ 6
DUCK PIER NC     2100   68 64  140/ 13/ 14 1027.1F
44100 DUCK FRF   2124      65                N/A     2/ 7
44056 DUCK FRF   2111      65                N/A     2/ 8
OREGON INLET NC  2100   71 72  110/  8/ 10 1028.7F
HATTERAS NC      2100   74 74  140/  4/  6 1028.2F
DIAMOND SHLS NC  2150   73 78   30/  6/  8 1028.3F   2/ 7   2/ 7
CAPE LOOKOUT NC  2200   74     110/  8/  9 1027.4F
$$


USA.gov is the U.S. government's official web portal to all federal, state and local government web resources and services.